NOAA 16 DEB, 41262

Orbit data source: Space-Track

NOAA 16 DEB, 41262 is space debris in SSO originally from a launch on Thu, 21 Sep 2000 UTC launched from the Air Force Western Test Range (AFWTR). Debris objects in space refer to the collection of defunct objects orbiting the Earth. Examples of debris include non-operational satellites, rocket bodies, and fragments generated from explosions, collisions, or faulty payload assembly.

Loading next visibility...
Identifier
41262, 2000-055FN
Orbit
SSO
Country
Flag of USUS
Related business
Manufacturer
Unknown
Mission
Spacecraft
Bus & Motor
Unknown
Mass
Unknown
Launch date (UTC)
2000-09-21 (25 years ago)
Launch vehicle
Unknown
Launch site
Air Force Western Test Range (AFWTR)
Object type
Payload
Rocket body
Debris
Shape & HBR
Unknown shape, 0.1 m
Radar Cross Section
Small (<0.1 m²)

Expand to show TLE details & history
Last TLE update: 1 week ago

TLE from 1 week ago
0 NOAA 16 DEB
1 41262U 00055FN  26028.31649502  .00009552  00000-0  42054-2 0  9991
2 41262  98.7844  58.6260 0043404 355.7394   4.3408 14.23116394519700
Epoch: 2026-01-28T07:35Z
TLE epoch observation values (Epoch: 2026-01-28T07:35:45.169Z)
Latitude
-0.00009°
Longitude
177.10252°
Altitude
786.613 km
Speed
7.477 km/s
True Right ascension
03h 54m 30s
True Declination
0° 00' 00"
Sunlit
Object was in daylight at epoch
Visualization orbit readout
Latitude
Unknown
Longitude
Unknown
Altitude
Unknown
Speed
Unknown
Apparent Right ascension
Unknown
Apparent Declination
Unknown
Sunlit
N/A
Visualization observer readout
Local Sidereal Time
14:03:04
Azimuth
Unknown
Elevation
Unknown
Doppler factor
Unknown
Orbital elements
Apogee altitude
843.199 km
Perigee altitude
780.783 km
Semi-major axis
7,190.128 km
Eccentricity
0.00434
Inclination
98.7844°
RAAN
58.626°
Arg. of periapsis
355.7394°
True anomaly
4.37865°
Mean anomaly
4.3408°
Eccentric anomaly
4.3597°
Mean motion
3.5599 °/min
Orbital period
101.13 mins
BSTAR
0.0042054
Loading maneuver chart data...
Computing Atmospheric mass density...
Loading historical data...
Loading historical data...
Loading historical data...
Loading historical data...
Loading historical data...
Loading historical data...
Loading historical data...

Documentation

Showing up to 5 results
|